DAL1715 KSFO-KLAX

Flight info

Callsign DAL1715
Flight time 0h 59m
Altitude 33000
Route WESLA5 SUSEY EBAYE BURGL IRNMN2
Aircraft B739/M-SDE2E3FGHIRWXY/LB1

Departure

Time 2026-04-21 16:29
Airport San Francisco International Airport (KSFO)

Arrival

Time 2026-04-21 17:29
Airport Los Angeles International Airport (KLAX)
Time Latitude Longitude Altitude Speed Heading
2026-04-21 16:14 37.61431 -122.38275 31 ft 0 kts 27°
2026-04-21 16:19 37.61429 -122.38277 31 ft 2 kts 28°
2026-04-21 16:20 37.61416 -122.38286 31 ft 2 kts 28°
2026-04-21 16:20 37.61402 -122.38296 31 ft 2 kts 46°
2026-04-21 16:20 37.61394 -122.38312 31 ft 2 kts 70°
2026-04-21 16:20 37.61392 -122.38331 31 ft 2 kts 95°
2026-04-21 16:21 37.61393 -122.38341 31 ft 0 kts 108°
2026-04-21 16:21 37.61388 -122.38326 31 ft 3 kts 118°
2026-04-21 16:21 37.61375 -122.38296 31 ft 3 kts 117°
2026-04-21 16:21 37.61363 -122.38265 31 ft 3 kts 117°
2026-04-21 16:22 37.61359 -122.38257 31 ft 0 kts 117°
2026-04-21 16:23 37.61354 -122.38243 31 ft 5 kts 117°
2026-04-21 16:23 37.61360 -122.38171 31 ft 11 kts 47°
2026-04-21 16:24 37.61442 -122.38110 31 ft 15 kts 28°
2026-04-21 16:24 37.61544 -122.38041 31 ft 17 kts 28°
2026-04-21 16:24 37.61643 -122.37974 31 ft 15 kts 34°
2026-04-21 16:24 37.61674 -122.37855 28 ft 15 kts 96°
2026-04-21 16:25 37.61661 -122.37720 26 ft 15 kts 97°
2026-04-21 16:25 37.61645 -122.37573 21 ft 20 kts 98°
2026-04-21 16:25 37.61626 -122.37380 15 ft 22 kts 98°
2026-04-21 16:25 37.61585 -122.37192 14 ft 21 kts 116°
2026-04-21 16:26 37.61516 -122.37025 11 ft 20 kts 118°
2026-04-21 16:26 37.61431 -122.36873 11 ft 22 kts 133°
2026-04-21 16:26 37.61334 -122.36705 11 ft 25 kts 119°
2026-04-21 16:26 37.61247 -122.36499 10 ft 28 kts 118°
2026-04-21 16:27 37.61157 -122.36286 8 ft 26 kts 118°
2026-04-21 16:27 37.61073 -122.36088 8 ft 23 kts 118°
2026-04-21 16:27 37.61082 -122.35919 8 ft 19 kts 38°
2026-04-21 16:27 37.61194 -122.35904 8 ft 14 kts 319°
2026-04-21 16:28 37.61245 -122.36012 8 ft 17 kts 298°
2026-04-21 16:28 37.61399 -122.36377 11 ft 81 kts 298°
2026-04-21 16:28 37.61771 -122.37264 15 ft 143 kts 298°
2026-04-21 16:28 37.62322 -122.38563 177 ft 177 kts 298°
2026-04-21 16:29 37.62704 -122.39462 522 ft 180 kts 296°
2026-04-21 16:29 37.63475 -122.41290 1651 ft 174 kts 296°
2026-04-21 16:29 37.64085 -122.42664 2066 ft 186 kts 296°
2026-04-21 16:29 37.64730 -122.44129 2491 ft 197 kts 296°
2026-04-21 16:30 37.65416 -122.45689 2899 ft 210 kts 295°
2026-04-21 16:30 37.66156 -122.47372 3244 ft 229 kts 296°
2026-04-21 16:30 37.66913 -122.49208 3699 ft 241 kts 287°
2026-04-21 16:30 37.67051 -122.51294 4215 ft 245 kts 257°
2026-04-21 16:31 37.66508 -122.53364 4714 ft 255 kts 244°
2026-04-21 16:31 37.65533 -122.55222 5440 ft 256 kts 222°
2026-04-21 16:31 37.63992 -122.56295 6172 ft 258 kts 197°
2026-04-21 16:31 37.62203 -122.56652 6910 ft 262 kts 182°
2026-04-21 16:32 37.60418 -122.56155 7623 ft 268 kts 157°
2026-04-21 16:32 37.58815 -122.54966 8386 ft 270 kts 152°
2026-04-21 16:32 37.57228 -122.53723 9054 ft 273 kts 153°
2026-04-21 16:32 37.55595 -122.52477 9785 ft 274 kts 153°
2026-04-21 16:33 37.53954 -122.51234 10360 ft 280 kts 153°
2026-04-21 16:33 37.52237 -122.49942 10742 ft 293 kts 153°
2026-04-21 16:33 37.50444 -122.48592 11081 ft 308 kts 153°
2026-04-21 16:33 37.48644 -122.47009 11403 ft 325 kts 142°
2026-04-21 16:34 37.46985 -122.44911 11692 ft 343 kts 136°
2026-04-21 16:34 37.45353 -122.42649 11980 ft 358 kts 136°
2026-04-21 16:34 37.43654 -122.40292 12350 ft 369 kts 136°
2026-04-21 16:34 37.41906 -122.37889 13031 ft 371 kts 136°
2026-04-21 16:35 37.40162 -122.35505 13784 ft 370 kts 137°
2026-04-21 16:35 37.38415 -122.33128 14344 ft 375 kts 137°
2026-04-21 16:35 37.36636 -122.30711 15020 ft 376 kts 137°
2026-04-21 16:35 37.34858 -122.28296 15623 ft 379 kts 137°
2026-04-21 16:36 37.33056 -122.25851 16277 ft 380 kts 137°
2026-04-21 16:36 37.31263 -122.23422 16785 ft 385 kts 137°
2026-04-21 16:36 37.29422 -122.20931 17365 ft 388 kts 137°
2026-04-21 16:36 37.27601 -122.18469 18015 ft 388 kts 137°
2026-04-21 16:37 37.25722 -122.15929 18498 ft 393 kts 137°
2026-04-21 16:37 37.23869 -122.13426 19102 ft 394 kts 137°
2026-04-21 16:37 37.21993 -122.10894 19686 ft 395 kts 137°
2026-04-21 16:37 37.20134 -122.08389 20142 ft 399 kts 137°
2026-04-21 16:38 37.18232 -122.05829 20667 ft 401 kts 137°
2026-04-21 16:38 37.16320 -122.03257 21198 ft 403 kts 138°
2026-04-21 16:38 37.14414 -122.00695 21739 ft 403 kts 138°
2026-04-21 16:38 37.12504 -121.98130 22257 ft 404 kts 138°
2026-04-21 16:39 37.10577 -121.95544 22650 ft 408 kts 138°
2026-04-21 16:39 37.08637 -121.92941 23114 ft 410 kts 139°
2026-04-21 16:39 37.06689 -121.90331 23558 ft 412 kts 139°
2026-04-21 16:39 37.04729 -121.87705 23987 ft 413 kts 139°
2026-04-21 16:40 37.02773 -121.85092 24303 ft 416 kts 139°
2026-04-21 16:40 37.00764 -121.82410 24554 ft 422 kts 140°
2026-04-21 16:40 36.98763 -121.79739 24880 ft 424 kts 139°
2026-04-21 16:40 36.96740 -121.77039 25242 ft 425 kts 140°
2026-04-21 16:41 36.95369 -121.75209 25427 ft 428 kts 140°
2026-04-21 16:41 36.92727 -121.71674 26337 ft 416 kts 140°
2026-04-21 16:41 36.90741 -121.69019 26877 ft 411 kts 141°
2026-04-21 16:41 36.88826 -121.66461 27522 ft 404 kts 141°
2026-04-21 16:42 36.86924 -121.63925 28127 ft 396 kts 141°
2026-04-21 16:42 36.85053 -121.61432 28528 ft 395 kts 142°
2026-04-21 16:42 36.83158 -121.58923 28886 ft 394 kts 142°
2026-04-21 16:42 36.81266 -121.56419 29192 ft 395 kts 142°
2026-04-21 16:43 36.79387 -121.53932 29412 ft 398 kts 143°
2026-04-21 16:43 36.77485 -121.51420 29683 ft 399 kts 143°
2026-04-21 16:43 36.75585 -121.48907 30015 ft 398 kts 143°
2026-04-21 16:43 36.73703 -121.46416 30395 ft 396 kts 143°
2026-04-21 16:44 36.71796 -121.43899 30572 ft 399 kts 143°
2026-04-21 16:44 36.69909 -121.41406 30986 ft 396 kts 143°
2026-04-21 16:44 36.68006 -121.38895 31188 ft 398 kts 143°
2026-04-21 16:44 36.66096 -121.36384 31367 ft 401 kts 143°
2026-04-21 16:45 36.64164 -121.33843 31511 ft 404 kts 144°
2026-04-21 16:45 36.62249 -121.31325 31765 ft 404 kts 144°
2026-04-21 16:45 36.60327 -121.28792 32143 ft 400 kts 144°
2026-04-21 16:45 36.58413 -121.26267 32329 ft 402 kts 144°
2026-04-21 16:46 36.56495 -121.23753 32481 ft 404 kts 144°
2026-04-21 16:46 36.54547 -121.21193 32742 ft 404 kts 145°
2026-04-21 16:46 36.52615 -121.18662 32942 ft 404 kts 145°
2026-04-21 16:47 36.48719 -121.13570 32976 ft 412 kts 144°
2026-04-21 16:47 36.44706 -121.08331 32975 ft 422 kts 144°
2026-04-21 16:48 36.40693 -121.02909 32993 ft 435 kts 141°
2026-04-21 16:48 36.36691 -120.97095 32998 ft 445 kts 141°
2026-04-21 16:49 36.32619 -120.91204 32990 ft 454 kts 141°
2026-04-21 16:49 36.28454 -120.85214 32995 ft 463 kts 141°
2026-04-21 16:50 36.24234 -120.79165 32999 ft 471 kts 141°
2026-04-21 16:50 36.19965 -120.73041 33003 ft 465 kts 141°
2026-04-21 16:51 36.15745 -120.67014 33005 ft 466 kts 141°
2026-04-21 16:51 36.11496 -120.60964 32992 ft 463 kts 142°
2026-04-21 16:52 36.07278 -120.54984 33010 ft 466 kts 141°
2026-04-21 16:52 36.03005 -120.48922 33001 ft 467 kts 141°
2026-04-21 16:53 35.98735 -120.42871 33009 ft 467 kts 141°
2026-04-21 16:53 35.94437 -120.36804 33005 ft 471 kts 141°
2026-04-21 16:54 35.90148 -120.30768 33023 ft 463 kts 143°
2026-04-21 16:54 35.85530 -120.25346 33010 ft 452 kts 154°
2026-04-21 16:55 35.80311 -120.21119 33023 ft 445 kts 159°
2026-04-21 16:55 35.75053 -120.17165 33022 ft 440 kts 159°
2026-04-21 16:56 35.69810 -120.13235 33018 ft 445 kts 159°
2026-04-21 16:56 35.64487 -120.09240 33032 ft 446 kts 159°
2026-04-21 16:57 35.59213 -120.05256 33034 ft 445 kts 159°
2026-04-21 16:57 35.53909 -120.01257 33035 ft 448 kts 159°
2026-04-21 16:58 35.48547 -119.97224 33032 ft 450 kts 159°
2026-04-21 16:58 35.43210 -119.93213 33035 ft 448 kts 159°
2026-04-21 16:59 35.37822 -119.89173 33033 ft 452 kts 159°
2026-04-21 16:59 35.32463 -119.85159 33035 ft 454 kts 159°
2026-04-21 17:00 35.27149 -119.81001 33033 ft 459 kts 155°
2026-04-21 17:00 35.22851 -119.77012 33030 ft 462 kts 153°
2026-04-21 17:01 35.16975 -119.71417 33028 ft 459 kts 153°
2026-04-21 17:01 35.11978 -119.66710 33039 ft 448 kts 153°
2026-04-21 17:02 35.07043 -119.62095 33037 ft 442 kts 153°
2026-04-21 17:02 35.02128 -119.57526 32452 ft 444 kts 153°
2026-04-21 17:02 34.99681 -119.55254 31678 ft 447 kts 153°
2026-04-21 17:03 34.97212 -119.52966 30835 ft 450 kts 153°
2026-04-21 17:03 34.94714 -119.50656 29937 ft 454 kts 152°
2026-04-21 17:03 34.92218 -119.48342 29209 ft 448 kts 152°
2026-04-21 17:03 34.89791 -119.46091 29051 ft 429 kts 153°
2026-04-21 17:04 34.87425 -119.43943 29029 ft 420 kts 154°
2026-04-21 17:04 34.85035 -119.41814 28910 ft 428 kts 153°
2026-04-21 17:04 34.82603 -119.39674 28337 ft 444 kts 153°
2026-04-21 17:04 34.80052 -119.37421 27542 ft 447 kts 153°
2026-04-21 17:05 34.77577 -119.35210 26844 ft 439 kts 152°
2026-04-21 17:05 34.75138 -119.33019 26348 ft 426 kts 153°
2026-04-21 17:05 34.72803 -119.30930 26057 ft 409 kts 153°
2026-04-21 17:05 34.70518 -119.28916 25427 ft 402 kts 154°
2026-04-21 17:06 34.68294 -119.26977 24819 ft 395 kts 154°
2026-04-21 17:06 34.66077 -119.25048 24242 ft 387 kts 154°
2026-04-21 17:06 34.63911 -119.23161 24055 ft 371 kts 155°
2026-04-21 17:06 34.61845 -119.21375 24046 ft 366 kts 155°
2026-04-21 17:07 34.60432 -119.20169 23884 ft 374 kts 155°
2026-04-21 17:07 34.57541 -119.17716 23240 ft 385 kts 154°
2026-04-21 17:07 34.55362 -119.15837 22694 ft 382 kts 154°
2026-04-21 17:07 34.53219 -119.13941 22142 ft 378 kts 153°
2026-04-21 17:08 34.51143 -119.12089 21596 ft 374 kts 153°
2026-04-21 17:08 34.49057 -119.10233 21032 ft 369 kts 153°
2026-04-21 17:08 34.46987 -119.08398 20472 ft 365 kts 153°
2026-04-21 17:08 34.44960 -119.06605 19930 ft 361 kts 153°
2026-04-21 17:09 34.40928 -119.03079 18840 ft 352 kts 154°
2026-04-21 17:09 34.38948 -119.01368 18311 ft 348 kts 153°
2026-04-21 17:09 34.36982 -118.99665 17784 ft 345 kts 154°
2026-04-21 17:10 34.35042 -118.97987 17250 ft 342 kts 153°
2026-04-21 17:10 34.33127 -118.96307 16857 ft 336 kts 152°
2026-04-21 17:10 34.31249 -118.94604 16441 ft 339 kts 152°
2026-04-21 17:10 34.29348 -118.92876 15930 ft 344 kts 152°
2026-04-21 17:11 34.27458 -118.91155 15403 ft 341 kts 151°
2026-04-21 17:11 34.25563 -118.89428 14870 ft 337 kts 151°
2026-04-21 17:11 34.23703 -118.87723 14338 ft 334 kts 150°
2026-04-21 17:11 34.21863 -118.86025 13816 ft 330 kts 150°
2026-04-21 17:12 34.20067 -118.84371 13384 ft 324 kts 151°
2026-04-21 17:12 34.18303 -118.82745 13150 ft 311 kts 150°
2026-04-21 17:12 34.16607 -118.81179 12970 ft 298 kts 150°
2026-04-21 17:12 34.15039 -118.79575 12827 ft 288 kts 146°
2026-04-21 17:13 34.13585 -118.77951 12541 ft 283 kts 146°
2026-04-21 17:13 34.12120 -118.76333 12161 ft 287 kts 146°
2026-04-21 17:13 34.10634 -118.74722 11746 ft 290 kts 146°
2026-04-21 17:13 34.09137 -118.73096 11351 ft 286 kts 145°
2026-04-21 17:14 34.07681 -118.71508 10984 ft 282 kts 145°
2026-04-21 17:14 34.06237 -118.69936 10616 ft 279 kts 145°
2026-04-21 17:14 34.04804 -118.68380 10242 ft 275 kts 144°
2026-04-21 17:14 34.03499 -118.66661 9972 ft 278 kts 129°
2026-04-21 17:15 34.02762 -118.64510 9832 ft 281 kts 107°
2026-04-21 17:15 34.02506 -118.62157 9321 ft 289 kts 101°
2026-04-21 17:15 34.02311 -118.59752 8923 ft 290 kts 101°
2026-04-21 17:15 34.02100 -118.57350 8594 ft 288 kts 101°
2026-04-21 17:16 34.01888 -118.55053 8319 ft 284 kts 101°
2026-04-21 17:16 34.01668 -118.52692 7998 ft 283 kts 101°
2026-04-21 17:16 34.01447 -118.50323 7660 ft 282 kts 101°
2026-04-21 17:16 34.01231 -118.48020 7562 ft 270 kts 101°
2026-04-21 17:17 34.01087 -118.45797 7531 ft 259 kts 92°
2026-04-21 17:17 34.01335 -118.43684 7493 ft 249 kts 81°
2026-04-21 17:17 34.01702 -118.41680 7369 ft 241 kts 81°
2026-04-21 17:17 34.02049 -118.39714 7091 ft 241 kts 82°
2026-04-21 17:18 34.02387 -118.37753 6860 ft 238 kts 81°
2026-04-21 17:18 34.02717 -118.35791 6570 ft 238 kts 83°
2026-04-21 17:18 34.02943 -118.33827 6273 ft 235 kts 86°
2026-04-21 17:18 34.03130 -118.31876 5988 ft 232 kts 86°
2026-04-21 17:19 34.03318 -118.29968 5860 ft 221 kts 86°
2026-04-21 17:19 34.03506 -118.28198 5803 ft 209 kts 86°
2026-04-21 17:19 34.03701 -118.26493 5628 ft 202 kts 86°
2026-04-21 17:19 34.03890 -118.24795 5283 ft 204 kts 85°
2026-04-21 17:20 34.04080 -118.23103 5061 ft 198 kts 85°
2026-04-21 17:20 34.04262 -118.21492 4926 ft 189 kts 85°
2026-04-21 17:20 34.04437 -118.19932 4659 ft 188 kts 85°
2026-04-21 17:20 34.04610 -118.18378 4390 ft 187 kts 85°
2026-04-21 17:21 34.04782 -118.16846 4128 ft 185 kts 85°
2026-04-21 17:21 34.04957 -118.15297 3866 ft 184 kts 85°
2026-04-21 17:21 34.05138 -118.13789 3608 ft 182 kts 86°
2026-04-21 17:21 34.05027 -118.12294 3332 ft 176 kts 115°
2026-04-21 17:22 34.04611 -118.11480 3152 ft 172 kts 135°
2026-04-21 17:22 34.03209 -118.10686 2882 ft 165 kts 173°
2026-04-21 17:22 34.02068 -118.10535 2953 ft 166 kts 172°
2026-04-21 17:22 34.00885 -118.10419 2955 ft 173 kts 184°
2026-04-21 17:23 33.99757 -118.10901 2958 ft 175 kts 215°
2026-04-21 17:23 33.98987 -118.12055 2956 ft 179 kts 245°
2026-04-21 17:23 33.98614 -118.13493 2959 ft 181 kts 251°
2026-04-21 17:23 33.98253 -118.14946 2957 ft 180 kts 251°
2026-04-21 17:24 33.97932 -118.16399 2956 ft 179 kts 254°
2026-04-21 17:24 33.97657 -118.17875 2959 ft 179 kts 256°
2026-04-21 17:24 33.97393 -118.19328 2957 ft 178 kts 257°
2026-04-21 17:24 33.97201 -118.20803 2965 ft 178 kts 261°
2026-04-21 17:25 33.97043 -118.22277 2960 ft 178 kts 260°
2026-04-21 17:25 33.96888 -118.23783 2879 ft 180 kts 261°
2026-04-21 17:25 33.96735 -118.25296 2582 ft 182 kts 261°
2026-04-21 17:25 33.96586 -118.26769 2334 ft 173 kts 260°
2026-04-21 17:26 33.96445 -118.28158 2115 ft 162 kts 260°
2026-04-21 17:26 33.96308 -118.29486 1885 ft 157 kts 261°
2026-04-21 17:26 33.96174 -118.30807 1678 ft 159 kts 260°
2026-04-21 17:26 33.96038 -118.32127 1474 ft 157 kts 261°
2026-04-21 17:27 33.95907 -118.33421 1252 ft 156 kts 261°
2026-04-21 17:27 33.95773 -118.34714 1052 ft 156 kts 261°
2026-04-21 17:27 33.95641 -118.36008 837 ft 156 kts 261°
2026-04-21 17:27 33.95508 -118.37307 627 ft 155 kts 261°
2026-04-21 17:28 33.95377 -118.38593 426 ft 155 kts 262°
2026-04-21 17:28 33.95245 -118.39889 210 ft 156 kts 261°
2026-04-21 17:28 33.95116 -118.41150 129 ft 139 kts 261°
2026-04-21 17:28 33.95024 -118.42027 125 ft 72 kts 263°
2026-04-21 17:29 33.94982 -118.42387 124 ft 17 kts 256°
2026-04-21 17:29 33.94947 -118.42511 122 ft 15 kts 247°
2026-04-21 17:29 33.94895 -118.42625 121 ft 15 kts 232°
2026-04-21 17:29 33.94821 -118.42721 119 ft 15 kts 219°
2026-04-21 17:30 33.94720 -118.42776 118 ft 15 kts 189°
2026-04-21 17:30 33.94637 -118.42733 117 ft 14 kts 100°
2026-04-21 17:30 33.94643 -118.42627 118 ft 11 kts 83°
2026-04-21 17:30 33.94654 -118.42537 119 ft 12 kts 83°
2026-04-21 17:31 33.94664 -118.42431 120 ft 11 kts 84°
2026-04-21 17:31 33.94674 -118.42328 120 ft 14 kts 82°
2026-04-21 17:31 33.94689 -118.42186 121 ft 17 kts 83°
2026-04-21 17:31 33.94702 -118.42049 123 ft 15 kts 83°
2026-04-21 17:32 33.94712 -118.41969 124 ft 13 kts 83°
2026-04-21 17:32 33.94726 -118.41824 125 ft 14 kts 83°
2026-04-21 17:32 33.94740 -118.41684 126 ft 17 kts 84°
2026-04-21 17:32 33.94754 -118.41546 127 ft 15 kts 83°
2026-04-21 17:33 33.94770 -118.41427 127 ft 14 kts 74°
2026-04-21 17:33 33.94794 -118.41293 129 ft 17 kts 83°
2026-04-21 17:33 33.94809 -118.41140 130 ft 17 kts 83°
2026-04-21 17:33 33.94823 -118.40997 129 ft 16 kts 83°
2026-04-21 17:34 33.94813 -118.40897 129 ft 8 kts 138°
2026-04-21 17:34 33.94767 -118.40868 129 ft 6 kts 155°
2026-04-21 17:34 33.94732 -118.40846 129 ft 4 kts 149°
2026-04-21 17:34 33.94706 -118.40826 129 ft 3 kts 147°
2026-04-21 17:35 33.94697 -118.40820 129 ft 0 kts 148°